owner,sensor,date,latitude,longitude,vertical_datum,sea_water_temperature,qcFlag 
DISL,ioos:station:DISL:MHPA:1,2012-01-01T06:30:00Z,30.6671,-87.9365,-0.9,14.38,2 
DISL,ioos:station:DISL:MHPA:1,2012-01-01T07:00:00Z,30.6671,-87.9365,-0.9,14.19,2 
DISL,ioos:station:DISL:MHPA:1,2012-01-01T07:30:00Z,30.6671,-87.9365,-0.9,14.06,2 
DISL,ioos:station:DISL:MHPA:1,2012-01-01T08:00:00Z,30.6671,-87.9365,-0.9,13.77,2 
DISL,ioos:station:DISL:MHPA:1,2012-01-01T08:30:00Z,30.6671,-87.9365,-0.9,13.54,2 
DISL,ioos:station:DISL:MHPA:1,2012-01-01T09:00:00Z,30.6671,-87.9365,-0.9,13.73,2 
DISL,ioos:station:DISL:MHPA:1,2012-01-01T09:30:00Z,30.6671,-87.9365,-0.9,13.78,2 
DISL,ioos:station:DISL:MHPA:1,2012-01-01T10:00:00Z,30.6671,-87.9365,-0.9,13.74,2 
DISL,ioos:station:DISL:MHPA:1,2012-01-01T10:30:00Z,30.6671,-87.9365,-0.9,13.3,2 
DISL,ioos:station:DISL:MHPA:1,2012-01-01T11:00:00Z,30.6671,-87.9365,-0.9,13.21,2 
DISL,ioos:station:DISL:MHPA:1,2012-01-01T11:30:00Z,30.6671,-87.9365,-0.9,13.21,2 
DISL,ioos:station:DISL:MHPA:1,2012-01-01T12:00:00Z,30.6671,-87.9365,-0.9,13.18,2 
DISL,ioos:station:DISL:MHPA:1,2012-01-01T12:30:00Z,30.6671,-87.9365,-0.9,13.19,2 
DISL,ioos:station:DISL:MHPA:1,2012-01-01T13:00:00Z,30.6671,-87.9365,-0.9,13.21,2 
DISL,ioos:station:DISL:MHPA:1,2012-01-01T13:30:00Z,30.6671,-87.9365,-0.9,13.27,2 
DISL,ioos:station:DISL:MHPA:1,2012-01-01T14:00:00Z,30.6671,-87.9365,-0.9,13.17,2 
DISL,ioos:station:DISL:MHPA:1,2012-01-01T14:30:00Z,30.6671,-87.9365,-0.9,13.37,2 
DISL,ioos:station:DISL:MHPA:1,2012-01-01T15:00:00Z,30.6671,-87.9365,-0.9,13.93,2 
DISL,ioos:station:DISL:MHPA:1,2012-01-01T15:30:00Z,30.6671,-87.9365,-0.9,13.71,2 
DISL,ioos:station:DISL:MHPA:1,2012-01-01T16:00:00Z,30.6671,-87.9365,-0.9,13.85,2 
DISL,ioos:station:DISL:MHPA:1,2012-01-01T16:30:00Z,30.6671,-87.9365,-0.9,13.86,2 
DISL,ioos:station:DISL:MHPA:1,2012-01-01T17:00:00Z,30.6671,-87.9365,-0.9,14.08,2 
DISL,ioos:station:DISL:MHPA:1,2012-01-01T17:30:00Z,30.6671,-87.9365,-0.9,14.1,2 
DISL,ioos:station:DISL:MHPA:1,2012-01-01T18:00:00Z,30.6671,-87.9365,-0.9,14.05,2 
DISL,ioos:station:DISL:MHPA:1,2012-01-01T18:30:00Z,30.6671,-87.9365,-0.9,14.15,2 
DISL,ioos:station:DISL:MHPA:1,2012-01-01T19:00:00Z,30.6671,-87.9365,-0.9,14.31,2 
DISL,ioos:station:DISL:MHPA:1,2012-01-01T19:30:00Z,30.6671,-87.9365,-0.9,14.47,2 
DISL,ioos:station:DISL:MHPA:1,2012-01-01T20:00:00Z,30.6671,-87.9365,-0.9,14.44,2 
DISL,ioos:station:DISL:MHPA:1,2012-01-01T20:30:00Z,30.6671,-87.9365,-0.9,14.33,2 
DISL,ioos:station:DISL:MHPA:1,2012-01-01T21:00:00Z,30.6671,-87.9365,-0.9,13.91,2 
DISL,ioos:station:DISL:MHPA:1,2012-01-01T21:30:00Z,30.6671,-87.9365,-0.9,13.8,2 
DISL,ioos:station:DISL:MHPA:1,2012-01-01T22:00:00Z,30.6671,-87.9365,-0.9,13.84,2 
DISL,ioos:station:DISL:MHPA:1,2012-01-01T22:30:00Z,30.6671,-87.9365,-0.9,13.92,2 
DISL,ioos:station:DISL:MHPA:1,2012-01-01T23:00:00Z,30.6671,-87.9365,-0.9,14.55,2 
DISL,ioos:station:DISL:MHPA:1,2012-01-01T23:30:00Z,30.6671,-87.9365,-0.9,14.5,2 
DISL,ioos:station:DISL:MHPA:1,2012-01-02T00:00:00Z,30.6671,-87.9365,-0.9,14.32,2 
DISL,ioos:station:DISL:MHPA:1,2012-01-02T00:30:00Z,30.6671,-87.9365,-0.9,14.26,2 
DISL,ioos:station:DISL:MHPA:1,2012-01-02T01:00:00Z,30.6671,-87.9365,-0.9,13.93,2 
DISL,ioos:station:DISL:MHPA:1,2012-01-02T01:30:00Z,30.6671,-87.9365,-0.9,13.64,2 
DISL,ioos:station:DISL:MHPA:1,2012-01-02T02:00:00Z,30.6671,-87.9365,-0.9,13.46,2 
DISL,ioos:station:DISL:MHPA:1,2012-01-02T02:30:00Z,30.6671,-87.9365,-0.9,13.56,2 
DISL,ioos:station:DISL:MHPA:1,2012-01-02T03:00:00Z,30.6671,-87.9365,-0.9,13.49,2 
DISL,ioos:station:DISL:MHPA:1,2012-01-02T03:30:00Z,30.6671,-87.9365,-0.9,13.44,2 
DISL,ioos:station:DISL:MHPA:1,2012-01-02T04:00:00Z,30.6671,-87.9365,-0.9,13.31,2 
DISL,ioos:station:DISL:MHPA:1,2012-01-02T04:30:00Z,30.6671,-87.9365,-0.9,13.28,2 
DISL,ioos:station:DISL:MHPA:1,2012-01-02T05:00:00Z,30.6671,-87.9365,-0.9,13.22,2 
DISL,ioos:station:DISL:MHPA:1,2012-01-02T05:30:00Z,30.6671,-87.9365,-0.9,13.16,2 
DISL,ioos:station:DISL:MHPA:1,2012-01-02T06:00:00Z,30.6671,-87.9365,-0.9,13.1,2 
DISL,ioos:station:DISL:MHPA:1,2012-01-02T06:30:00Z,30.6671,-87.9365,-0.9,13.03,2 
DISL,ioos:station:DISL:MHPA:1,2012-01-02T07:00:00Z,30.6671,-87.9365,-0.9,12.95,2 
DISL,ioos:station:DISL:MHPA:1,2012-01-02T07:30:00Z,30.6671,-87.9365,-0.9,13.35,2 
DISL,ioos:station:DISL:MHPA:1,2012-01-02T08:00:00Z,30.6671,-87.9365,-0.9,13.13,2 
DISL,ioos:station:DISL:MHPA:1,2012-01-02T08:30:00Z,30.6671,-87.9365,-0.9,13.09,2 
DISL,ioos:station:DISL:MHPA:1,2012-01-02T09:00:00Z,30.6671,-87.9365,-0.9,12.94,2 
DISL,ioos:station:DISL:MHPA:1,2012-01-02T09:30:00Z,30.6671,-87.9365,-0.9,12.87,2 
DISL,ioos:station:DISL:MHPA:1,2012-01-02T10:00:00Z,30.6671,-87.9365,-0.9,12.79,2 
DISL,ioos:station:DISL:MHPA:1,2012-01-02T10:30:00Z,30.6671,-87.9365,-0.9,12.72,2 
DISL,ioos:station:DISL:MHPA:1,2012-01-02T11:00:00Z,30.6671,-87.9365,-0.9,12.61,2 
DISL,ioos:station:DISL:MHPA:1,2012-01-02T11:30:00Z,30.6671,-87.9365,-0.9,12.52,2 
DISL,ioos:station:DISL:MHPA:1,2012-01-02T12:00:00Z,30.6671,-87.9365,-0.9,12.43,2 
DISL,ioos:station:DISL:MHPA:1,2012-01-02T12:30:00Z,30.6671,-87.9365,-0.9,12.34,2 
DISL,ioos:station:DISL:MHPA:1,2012-01-02T13:00:00Z,30.6671,-87.9365,-0.9,12.25,2 
DISL,ioos:station:DISL:MHPA:1,2012-01-02T13:30:00Z,30.6671,-87.9365,-0.9,12.12,2 
DISL,ioos:station:DISL:MHPA:1,2012-01-02T14:00:00Z,30.6671,-87.9365,-0.9,12.06,2 
DISL,ioos:station:DISL:MHPA:1,2012-01-02T14:30:00Z,30.6671,-87.9365,-0.9,12.05,2 
DISL,ioos:station:DISL:MHPA:1,2012-01-02T15:00:00Z,30.6671,-87.9365,-0.9,12.06,2 
DISL,ioos:station:DISL:MHPA:1,2012-01-02T15:30:00Z,30.6671,-87.9365,-0.9,12.12,2 
DISL,ioos:station:DISL:MHPA:1,2012-01-02T16:00:00Z,30.6671,-87.9365,-0.9,12.18,2 
DISL,ioos:station:DISL:MHPA:1,2012-01-02T16:30:00Z,30.6671,-87.9365,-0.9,12.21,2 
DISL,ioos:station:DISL:MHPA:1,2012-01-02T17:00:00Z,30.6671,-87.9365,-0.9,12.3,2 
DISL,ioos:station:DISL:MHPA:1,2012-01-02T17:30:00Z,30.6671,-87.9365,-0.9,12.33,2 
DISL,ioos:station:DISL:MHPA:1,2012-01-02T18:00:00Z,30.6671,-87.9365,-0.9,12.45,2 
DISL,ioos:station:DISL:MHPA:1,2012-01-02T18:30:00Z,30.6671,-87.9365,-0.9,12.56,2 
DISL,ioos:station:DISL:MHPA:1,2012-01-02T19:00:00Z,30.6671,-87.9365,-0.9,12.65,2 
DISL,ioos:station:DISL:MHPA:1,2012-01-02T19:30:00Z,30.6671,-87.9365,-0.9,12.72,2 
DISL,ioos:station:DISL:MHPA:1,2012-01-02T20:00:00Z,30.6671,-87.9365,-0.9,12.81,2 
DISL,ioos:station:DISL:MHPA:1,2012-01-02T20:30:00Z,30.6671,-87.9365,-0.9,12.82,2 
DISL,ioos:station:DISL:MHPA:1,2012-01-02T21:00:00Z,30.6671,-87.9365,-0.9,12.83,2 
DISL,ioos:station:DISL:MHPA:1,2012-01-02T21:30:00Z,30.6671,-87.9365,-0.9,12.84,2 
DISL,ioos:station:DISL:MHPA:1,2012-01-02T22:00:00Z,30.6671,-87.9365,-0.9,12.89,2 
DISL,ioos:station:DISL:MHPA:1,2012-01-02T22:30:00Z,30.6671,-87.9365,-0.9,12.78,2 
DISL,ioos:station:DISL:MHPA:1,2012-01-02T23:00:00Z,30.6671,-87.9365,-0.9,12.7,2 
DISL,ioos:station:DISL:MHPA:1,2012-01-02T23:30:00Z,30.6671,-87.9365,-0.9,12.7,2 
DISL,ioos:station:DISL:MHPA:1,2012-01-03T00:00:00Z,30.6671,-87.9365,-0.9,12.64,2 
DISL,ioos:station:DISL:MHPA:1,2012-01-03T00:30:00Z,30.6671,-87.9365,-0.9,12.58,2 
DISL,ioos:station:DISL:MHPA:1,2012-01-03T01:00:00Z,30.6671,-87.9365,-0.9,12.49,2 
DISL,ioos:station:DISL:MHPA:1,2012-01-03T01:30:00Z,30.6671,-87.9365,-0.9,12.24,2 
DISL,ioos:station:DISL:MHPA:1,2012-01-03T02:00:00Z,30.6671,-87.9365,-0.9,12.03,2 
DISL,ioos:station:DISL:MHPA:1,2012-01-03T02:30:00Z,30.6671,-87.9365,-0.9,12.09,2 
DISL,ioos:station:DISL:MHPA:1,2012-01-03T03:00:00Z,30.6671,-87.9365,-0.9,11.64,2 
DISL,ioos:station:DISL:MHPA:1,2012-01-03T03:30:00Z,30.6671,-87.9365,-0.9,11.52,2 
DISL,ioos:station:DISL:MHPA:1,2012-01-03T04:00:00Z,30.6671,-87.9365,-0.9,11.34,2 
DISL,ioos:station:DISL:MHPA:1,2012-01-03T04:30:00Z,30.6671,-87.9365,-0.9,11.27,2 
DISL,ioos:station:DISL:MHPA:1,2012-01-03T05:00:00Z,30.6671,-87.9365,-0.9,11.1,2 
DISL,ioos:station:DISL:MHPA:1,2012-01-03T05:30:00Z,30.6671,-87.9365,-0.9,11.01,2 
DISL,ioos:station:DISL:MHPA:1,2012-01-03T06:00:00Z,30.6671,-87.9365,-0.9,11.18,2 
DISL,ioos:station:DISL:MHPA:1,2012-01-03T06:30:00Z,30.6671,-87.9365,-0.9,10.94,2 
DISL,ioos:station:DISL:MHPA:1,2012-01-03T07:00:00Z,30.6671,-87.9365,-0.9,10.84,2 
DISL,ioos:station:DISL:MHPA:1,2012-01-03T07:30:00Z,30.6671,-87.9365,-0.9,10.68,2 
DISL,ioos:station:DISL:MHPA:1,2012-01-03T08:00:00Z,30.6671,-87.9365,-0.9,10.24,2 
DISL,ioos:station:DISL:MHPA:1,2012-01-03T08:30:00Z,30.6671,-87.9365,-0.9,10.29,2 
DISL,ioos:station:DISL:MHPA:1,2012-01-03T09:00:00Z,30.6671,-87.9365,-0.9,10.04,2 
DISL,ioos:station:DISL:MHPA:1,2012-01-03T09:30:00Z,30.6671,-87.9365,-0.9,10.21,2 
DISL,ioos:station:DISL:MHPA:1,2012-01-03T10:00:00Z,30.6671,-87.9365,-0.9,10.24,2 
DISL,ioos:station:DISL:MHPA:1,2012-01-03T10:30:00Z,30.6671,-87.9365,-0.9,10.1,2 
DISL,ioos:station:DISL:MHPA:1,2012-01-03T11:00:00Z,30.6671,-87.9365,-0.9,10.17,2 
DISL,ioos:station:DISL:MHPA:1,2012-01-03T11:30:00Z,30.6671,-87.9365,-0.9,10.19,2 
DISL,ioos:station:DISL:MHPA:1,2012-01-03T12:00:00Z,30.6671,-87.9365,-0.9,10.11,2 
DISL,ioos:station:DISL:MHPA:1,2012-01-03T12:30:00Z,30.6671,-87.9365,-0.9,10.07,2 
DISL,ioos:station:DISL:MHPA:1,2012-01-03T13:00:00Z,30.6671,-87.9365,-0.9,10.09,2 
DISL,ioos:station:DISL:MHPA:1,2012-01-03T13:30:00Z,30.6671,-87.9365,-0.9,10.08,2 
DISL,ioos:station:DISL:MHPA:1,2012-01-03T14:00:00Z,30.6671,-87.9365,-0.9,10.07,2 
DISL,ioos:station:DISL:MHPA:1,2012-01-03T14:30:00Z,30.6671,-87.9365,-0.9,9.86,2 
DISL,ioos:station:DISL:MHPA:1,2012-01-03T15:00:00Z,30.6671,-87.9365,-0.9,9.82,2 
DISL,ioos:station:DISL:MHPA:1,2012-01-03T15:30:00Z,30.6671,-87.9365,-0.9,9.87,2 
DISL,ioos:station:DISL:MHPA:1,2012-01-03T16:00:00Z,30.6671,-87.9365,-0.9,9.99,2 
DISL,ioos:station:DISL:MHPA:1,2012-01-03T16:30:00Z,30.6671,-87.9365,-0.9,10.05,2 
DISL,ioos:station:DISL:MHPA:1,2012-01-03T17:00:00Z,30.6671,-87.9365,-0.9,10.09,2 
DISL,ioos:station:DISL:MHPA:1,2012-01-03T17:30:00Z,30.6671,-87.9365,-0.9,10.14,2 
DISL,ioos:station:DISL:MHPA:1,2012-01-03T18:00:00Z,30.6671,-87.9365,-0.9,10.2,2 
DISL,ioos:station:DISL:MHPA:1,2012-01-03T18:30:00Z,30.6671,-87.9365,-0.9,10.24,2 
DISL,ioos:station:DISL:MHPA:1,2012-01-03T19:00:00Z,30.6671,-87.9365,-0.9,10.33,2 
DISL,ioos:station:DISL:MHPA:1,2012-01-03T19:30:00Z,30.6671,-87.9365,-0.9,10.41,2 
DISL,ioos:station:DISL:MHPA:1,2012-01-03T20:00:00Z,30.6671,-87.9365,-0.9,10.51,2 
DISL,ioos:station:DISL:MHPA:1,2012-01-03T20:30:00Z,30.6671,-87.9365,-0.9,10.54,2 
DISL,ioos:station:DISL:MHPA:1,2012-01-03T21:00:00Z,30.6671,-87.9365,-0.9,10.56,2 
DISL,ioos:station:DISL:MHPA:1,2012-01-03T21:30:00Z,30.6671,-87.9365,-0.9,10.54,2 
DISL,ioos:station:DISL:MHPA:1,2012-01-03T22:00:00Z,30.6671,-87.9365,-0.9,10.55,2 
DISL,ioos:station:DISL:MHPA:1,2012-01-03T22:30:00Z,30.6671,-87.9365,-0.9,10.52,2 
DISL,ioos:station:DISL:MHPA:1,2012-01-03T23:00:00Z,30.6671,-87.9365,-0.9,10.46,2 
DISL,ioos:station:DISL:MHPA:1,2012-01-03T23:30:00Z,30.6671,-87.9365,-0.9,10.22,2 
DISL,ioos:station:DISL:MHPA:1,2012-01-04T00:00:00Z,30.6671,-87.9365,-0.9,10.38,2 
DISL,ioos:station:DISL:MHPA:1,2012-01-04T00:30:00Z,30.6671,-87.9365,-0.9,10.3,2 
DISL,ioos:station:DISL:MHPA:1,2012-01-04T01:00:00Z,30.6671,-87.9365,-0.9,10.41,2 
DISL,ioos:station:DISL:MHPA:1,2012-01-04T01:30:00Z,30.6671,-87.9365,-0.9,10.46,2 
DISL,ioos:station:DISL:MHPA:1,2012-01-04T02:00:00Z,30.6671,-87.9365,-0.9,10.13,2 
DISL,ioos:station:DISL:MHPA:1,2012-01-04T02:30:00Z,30.6671,-87.9365,-0.9,10.44,2 
DISL,ioos:station:DISL:MHPA:1,2012-01-04T03:00:00Z,30.6671,-87.9365,-0.9,10.34,2 
DISL,ioos:station:DISL:MHPA:1,2012-01-04T03:30:00Z,30.6671,-87.9365,-0.9,10.1,2 
DISL,ioos:station:DISL:MHPA:1,2012-01-04T04:00:00Z,30.6671,-87.9365,-0.9,10.12,2 
DISL,ioos:station:DISL:MHPA:1,2012-01-04T04:30:00Z,30.6671,-87.9365,-0.9,10.29,2 
DISL,ioos:station:DISL:MHPA:1,2012-01-04T05:00:00Z,30.6671,-87.9365,-0.9,10.27,2 
DISL,ioos:station:DISL:MHPA:1,2012-01-04T05:30:00Z,30.6671,-87.9365,-0.9,10.16,2 
DISL,ioos:station:DISL:MHPA:1,2012-01-04T06:00:00Z,30.6671,-87.9365,-0.9,10.19,2 
DISL,ioos:station:DISL:MHPA:1,2012-01-04T06:30:00Z,30.6671,-87.9365,-0.9,10.32,2 
DISL,ioos:station:DISL:MHPA:1,2012-01-04T07:00:00Z,30.6671,-87.9365,-0.9,10.26,2 
DISL,ioos:station:DISL:MHPA:1,2012-01-04T07:30:00Z,30.6671,-87.9365,-0.9,10.13,2 
DISL,ioos:station:DISL:MHPA:1,2012-01-04T08:00:00Z,30.6671,-87.9365,-0.9,9.85,2 
DISL,ioos:station:DISL:MHPA:1,2012-01-04T08:30:00Z,30.6671,-87.9365,-0.9,9.75,2 
DISL,ioos:station:DISL:MHPA:1,2012-01-04T09:00:00Z,30.6671,-87.9365,-0.9,9.74,2 
DISL,ioos:station:DISL:MHPA:1,2012-01-04T09:30:00Z,30.6671,-87.9365,-0.9,9.83,2 
DISL,ioos:station:DISL:MHPA:1,2012-01-04T10:00:00Z,30.6671,-87.9365,-0.9,9.65,2 
DISL,ioos:station:DISL:MHPA:1,2012-01-04T10:30:00Z,30.6671,-87.9365,-0.9,9.42,2 
DISL,ioos:station:DISL:MHPA:1,2012-01-04T11:00:00Z,30.6671,-87.9365,-0.9,9.12,2 
DISL,ioos:station:DISL:MHPA:1,2012-01-04T11:30:00Z,30.6671,-87.9365,-0.9,9.1,2 
DISL,ioos:station:DISL:MHPA:1,2012-01-04T12:00:00Z,30.6671,-87.9365,-0.9,9.51,2 
DISL,ioos:station:DISL:MHPA:1,2012-01-04T12:30:00Z,30.6671,-87.9365,-0.9,9.56,2 
DISL,ioos:station:DISL:MHPA:1,2012-01-04T13:00:00Z,30.6671,-87.9365,-0.9,9.46,2 
DISL,ioos:station:DISL:MHPA:1,2012-01-04T13:30:00Z,30.6671,-87.9365,-0.9,9.42,2 
DISL,ioos:station:DISL:MHPA:1,2012-01-04T14:00:00Z,30.6671,-87.9365,-0.9,9.39,2 
DISL,ioos:station:DISL:MHPA:1,2012-01-04T14:30:00Z,30.6671,-87.9365,-0.9,9.24,2 
DISL,ioos:station:DISL:MHPA:1,2012-01-04T15:00:00Z,30.6671,-87.9365,-0.9,9.21,2 
DISL,ioos:station:DISL:MHPA:1,2012-01-04T15:30:00Z,30.6671,-87.9365,-0.9,9.34,2 
DISL,ioos:station:DISL:MHPA:1,2012-01-04T16:00:00Z,30.6671,-87.9365,-0.9,9.4,2 
DISL,ioos:station:DISL:MHPA:1,2012-01-04T16:30:00Z,30.6671,-87.9365,-0.9,9.84,2 
DISL,ioos:station:DISL:MHPA:1,2012-01-04T17:00:00Z,30.6671,-87.9365,-0.9,10.25,2 
DISL,ioos:station:DISL:MHPA:1,2012-01-04T17:30:00Z,30.6671,-87.9365,-0.9,10.34,2 
DISL,ioos:station:DISL:MHPA:1,2012-01-04T18:00:00Z,30.6671,-87.9365,-0.9,10.43,2 
DISL,ioos:station:DISL:MHPA:1,2012-01-04T18:30:00Z,30.6671,-87.9365,-0.9,10.54,2 
DISL,ioos:station:DISL:MHPA:1,2012-01-04T19:00:00Z,30.6671,-87.9365,-0.9,10.56,2 
DISL,ioos:station:DISL:MHPA:1,2012-01-04T19:30:00Z,30.6671,-87.9365,-0.9,10.47,2 
DISL,ioos:station:DISL:MHPA:1,2012-01-04T20:00:00Z,30.6671,-87.9365,-0.9,10.42,2 
DISL,ioos:station:DISL:MHPA:1,2012-01-04T20:30:00Z,30.6671,-87.9365,-0.9,10.36,2 
DISL,ioos:station:DISL:MHPA:1,2012-01-04T21:00:00Z,30.6671,-87.9365,-0.9,10.58,2 
DISL,ioos:station:DISL:MHPA:1,2012-01-04T21:30:00Z,30.6671,-87.9365,-0.9,10.72,2 
DISL,ioos:station:DISL:MHPA:1,2012-01-04T22:00:00Z,30.6671,-87.9365,-0.9,10.82,2 
DISL,ioos:station:DISL:MHPA:1,2012-01-04T22:30:00Z,30.6671,-87.9365,-0.9,10.82,2 
DISL,ioos:station:DISL:MHPA:1,2012-01-04T23:00:00Z,30.6671,-87.9365,-0.9,10.78,2 
DISL,ioos:station:DISL:MHPA:1,2012-01-04T23:30:00Z,30.6671,-87.9365,-0.9,10.8,2 
DISL,ioos:station:DISL:MHPA:1,2012-01-05T00:00:00Z,30.6671,-87.9365,-0.9,10.79,2 
DISL,ioos:station:DISL:MHPA:1,2012-01-05T00:30:00Z,30.6671,-87.9365,-0.9,10.78,2 
DISL,ioos:station:DISL:MHPA:1,2012-01-05T01:00:00Z,30.6671,-87.9365,-0.9,10.78,2 
DISL,ioos:station:DISL:MHPA:1,2012-01-05T01:30:00Z,30.6671,-87.9365,-0.9,10.78,2 
DISL,ioos:station:DISL:MHPA:1,2012-01-05T02:00:00Z,30.6671,-87.9365,-0.9,10.75,2 
DISL,ioos:station:DISL:MHPA:1,2012-01-05T02:30:00Z,30.6671,-87.9365,-0.9,10.84,2 
DISL,ioos:station:DISL:MHPA:1,2012-01-05T03:00:00Z,30.6671,-87.9365,-0.9,10.85,2 
DISL,ioos:station:DISL:MHPA:1,2012-01-05T03:30:00Z,30.6671,-87.9365,-0.9,10.83,2 
DISL,ioos:station:DISL:MHPA:1,2012-01-05T04:00:00Z,30.6671,-87.9365,-0.9,10.75,2 
DISL,ioos:station:DISL:MHPA:1,2012-01-05T04:30:00Z,30.6671,-87.9365,-0.9,10.73,2 
DISL,ioos:station:DISL:MHPA:1,2012-01-05T05:00:00Z,30.6671,-87.9365,-0.9,10.7,2 
DISL,ioos:station:DISL:MHPA:1,2012-01-05T05:30:00Z,30.6671,-87.9365,-0.9,10.69,2 
DISL,ioos:station:DISL:MHPA:1,2012-01-05T06:00:00Z,30.6671,-87.9365,-0.9,10.72,2 
DISL,ioos:station:DISL:MHPA:1,2012-01-05T06:30:00Z,30.6671,-87.9365,-0.9,10.77,2 
DISL,ioos:station:DISL:MHPA:1,2012-01-05T07:00:00Z,30.6671,-87.9365,-0.9,10.74,2 
DISL,ioos:station:DISL:MHPA:1,2012-01-05T07:30:00Z,30.6671,-87.9365,-0.9,10.68,2 
DISL,ioos:station:DISL:MHPA:1,2012-01-05T08:00:00Z,30.6671,-87.9365,-0.9,10.63,2 
DISL,ioos:station:DISL:MHPA:1,2012-01-05T08:30:00Z,30.6671,-87.9365,-0.9,10.64,2 
DISL,ioos:station:DISL:MHPA:1,2012-01-05T09:00:00Z,30.6671,-87.9365,-0.9,10.62,2 
DISL,ioos:station:DISL:MHPA:1,2012-01-05T09:30:00Z,30.6671,-87.9365,-0.9,10.55,2 
DISL,ioos:station:DISL:MHPA:1,2012-01-05T10:00:00Z,30.6671,-87.9365,-0.9,10.56,2 
DISL,ioos:station:DISL:MHPA:1,2012-01-05T10:30:00Z,30.6671,-87.9365,-0.9,10.55,2 
DISL,ioos:station:DISL:MHPA:1,2012-01-05T11:00:00Z,30.6671,-87.9365,-0.9,10.55,2 
DISL,ioos:station:DISL:MHPA:1,2012-01-05T11:30:00Z,30.6671,-87.9365,-0.9,10.53,2 
DISL,ioos:station:DISL:MHPA:1,2012-01-05T12:00:00Z,30.6671,-87.9365,-0.9,10.5,2 
DISL,ioos:station:DISL:MHPA:1,2012-01-05T12:30:00Z,30.6671,-87.9365,-0.9,10.48,2 
DISL,ioos:station:DISL:MHPA:1,2012-01-05T13:00:00Z,30.6671,-87.9365,-0.9,10.42,2 
DISL,ioos:station:DISL:MHPA:1,2012-01-05T13:30:00Z,30.6671,-87.9365,-0.9,10.41,2 
DISL,ioos:station:DISL:MHPA:1,2012-01-05T14:00:00Z,30.6671,-87.9365,-0.9,10.42,2 
DISL,ioos:station:DISL:MHPA:1,2012-01-05T14:30:00Z,30.6671,-87.9365,-0.9,10.45,2 
DISL,ioos:station:DISL:MHPA:1,2012-01-05T15:00:00Z,30.6671,-87.9365,-0.9,10.49,2 
DISL,ioos:station:DISL:MHPA:1,2012-01-05T15:30:00Z,30.6671,-87.9365,-0.9,10.64,2 
DISL,ioos:station:DISL:MHPA:1,2012-01-05T16:00:00Z,30.6671,-87.9365,-0.9,10.92,2 
DISL,ioos:station:DISL:MHPA:1,2012-01-05T16:30:00Z,30.6671,-87.9365,-0.9,11.32,2 
DISL,ioos:station:DISL:MHPA:1,2012-01-05T17:00:00Z,30.6671,-87.9365,-0.9,11.49,2 
DISL,ioos:station:DISL:MHPA:1,2012-01-05T17:30:00Z,30.6671,-87.9365,-0.9,11.54,2 
DISL,ioos:station:DISL:MHPA:1,2012-01-05T18:00:00Z,30.6671,-87.9365,-0.9,11.64,2 
DISL,ioos:station:DISL:MHPA:1,2012-01-05T18:30:00Z,30.6671,-87.9365,-0.9,11.79,2 
DISL,ioos:station:DISL:MHPA:1,2012-01-05T19:00:00Z,30.6671,-87.9365,-0.9,11.9,2 
DISL,ioos:station:DISL:MHPA:1,2012-01-05T19:30:00Z,30.6671,-87.9365,-0.9,12.78,2 
DISL,ioos:station:DISL:MHPA:1,2012-01-05T20:00:00Z,30.6671,-87.9365,-0.9,13.25,2 
DISL,ioos:station:DISL:MHPA:1,2012-01-05T20:30:00Z,30.6671,-87.9365,-0.9,13.42,2 
DISL,ioos:station:DISL:MHPA:1,2012-01-05T21:00:00Z,30.6671,-87.9365,-0.9,13.48,2 
DISL,ioos:station:DISL:MHPA:1,2012-01-05T21:30:00Z,30.6671,-87.9365,-0.9,13.47,2 
DISL,ioos:station:DISL:MHPA:1,2012-01-05T22:00:00Z,30.6671,-87.9365,-0.9,13.45,2 
DISL,ioos:station:DISL:MHPA:1,2012-01-05T22:30:00Z,30.6671,-87.9365,-0.9,13.58,2 
DISL,ioos:station:DISL:MHPA:1,2012-01-05T23:00:00Z,30.6671,-87.9365,-0.9,13.53,2 
DISL,ioos:station:DISL:MHPA:1,2012-01-05T23:30:00Z,30.6671,-87.9365,-0.9,13.48,2 
DISL,ioos:station:DISL:MHPA:1,2012-01-06T00:00:00Z,30.6671,-87.9365,-0.9,13.12,2 
DISL,ioos:station:DISL:MHPA:1,2012-01-06T00:30:00Z,30.6671,-87.9365,-0.9,12.99,2 
DISL,ioos:station:DISL:MHPA:1,2012-01-06T01:00:00Z,30.6671,-87.9365,-0.9,13.05,2 
DISL,ioos:station:DISL:MHPA:1,2012-01-06T01:30:00Z,30.6671,-87.9365,-0.9,12.78,2 
DISL,ioos:station:DISL:MHPA:1,2012-01-06T02:00:00Z,30.6671,-87.9365,-0.9,12.85,2 
DISL,ioos:station:DISL:MHPA:1,2012-01-06T02:30:00Z,30.6671,-87.9365,-0.9,13.04,2 
DISL,ioos:station:DISL:MHPA:1,2012-01-06T03:00:00Z,30.6671,-87.9365,-0.9,13.36,2 
DISL,ioos:station:DISL:MHPA:1,2012-01-06T03:30:00Z,30.6671,-87.9365,-0.9,12.96,2 
DISL,ioos:station:DISL:MHPA:1,2012-01-06T04:00:00Z,30.6671,-87.9365,-0.9,12.7,2 
DISL,ioos:station:DISL:MHPA:1,2012-01-06T04:30:00Z,30.6671,-87.9365,-0.9,12.62,2 
DISL,ioos:station:DISL:MHPA:1,2012-01-06T05:00:00Z,30.6671,-87.9365,-0.9,12.6,2 
DISL,ioos:station:DISL:MHPA:1,2012-01-06T05:30:00Z,30.6671,-87.9365,-0.9,12.58,2 
DISL,ioos:station:DISL:MHPA:1,2012-01-06T06:00:00Z,30.6671,-87.9365,-0.9,11.93,2 
DISL,ioos:station:DISL:MHPA:1,2012-01-06T06:30:00Z,30.6671,-87.9365,-0.9,11.64,2 
DISL,ioos:station:DISL:MHPA:1,2012-01-06T07:00:00Z,30.6671,-87.9365,-0.9,11.75,2 
DISL,ioos:station:DISL:MHPA:1,2012-01-06T07:30:00Z,30.6671,-87.9365,-0.9,11.73,2 
DISL,ioos:station:DISL:MHPA:1,2012-01-06T08:00:00Z,30.6671,-87.9365,-0.9,11.81,2 
DISL,ioos:station:DISL:MHPA:1,2012-01-06T08:30:00Z,30.6671,-87.9365,-0.9,12.0,2 
DISL,ioos:station:DISL:MHPA:1,2012-01-06T09:00:00Z,30.6671,-87.9365,-0.9,12.47,2 
DISL,ioos:station:DISL:MHPA:1,2012-01-06T09:30:00Z,30.6671,-87.9365,-0.9,12.44,2 
DISL,ioos:station:DISL:MHPA:1,2012-01-06T10:00:00Z,30.6671,-87.9365,-0.9,11.9,2 
DISL,ioos:station:DISL:MHPA:1,2012-01-06T10:30:00Z,30.6671,-87.9365,-0.9,11.84,2 
DISL,ioos:station:DISL:MHPA:1,2012-01-06T11:00:00Z,30.6671,-87.9365,-0.9,11.57,2 
DISL,ioos:station:DISL:MHPA:1,2012-01-06T11:30:00Z,30.6671,-87.9365,-0.9,11.86,2 
DISL,ioos:station:DISL:MHPA:1,2012-01-06T12:00:00Z,30.6671,-87.9365,-0.9,12.12,2 
DISL,ioos:station:DISL:MHPA:1,2012-01-06T12:30:00Z,30.6671,-87.9365,-0.9,12.06,2 
DISL,ioos:station:DISL:MHPA:1,2012-01-06T13:00:00Z,30.6671,-87.9365,-0.9,11.83,2 
DISL,ioos:station:DISL:MHPA:1,2012-01-06T13:30:00Z,30.6671,-87.9365,-0.9,11.73,2 
DISL,ioos:station:DISL:MHPA:1,2012-01-06T14:00:00Z,30.6671,-87.9365,-0.9,11.7,2 
DISL,ioos:station:DISL:MHPA:1,2012-01-06T14:30:00Z,30.6671,-87.9365,-0.9,11.93,2 
DISL,ioos:station:DISL:MHPA:1,2012-01-06T15:00:00Z,30.6671,-87.9365,-0.9,12.05,2 
DISL,ioos:station:DISL:MHPA:1,2012-01-06T15:30:00Z,30.6671,-87.9365,-0.9,12.16,2 
DISL,ioos:station:DISL:MHPA:1,2012-01-06T16:00:00Z,30.6671,-87.9365,-0.9,12.24,2 
DISL,ioos:station:DISL:MHPA:1,2012-01-06T16:30:00Z,30.6671,-87.9365,-0.9,12.28,2 
DISL,ioos:station:DISL:MHPA:1,2012-01-06T17:00:00Z,30.6671,-87.9365,-0.9,12.4,2 
DISL,ioos:station:DISL:MHPA:1,2012-01-06T17:30:00Z,30.6671,-87.9365,-0.9,12.52,2 
DISL,ioos:station:DISL:MHPA:1,2012-01-06T18:00:00Z,30.6671,-87.9365,-0.9,12.66,2 
DISL,ioos:station:DISL:MHPA:1,2012-01-06T18:30:00Z,30.6671,-87.9365,-0.9,12.75,2 
DISL,ioos:station:DISL:MHPA:1,2012-01-06T19:00:00Z,30.6671,-87.9365,-0.9,13.47,2 
DISL,ioos:station:DISL:MHPA:1,2012-01-06T19:30:00Z,30.6671,-87.9365,-0.9,13.1,2 
DISL,ioos:station:DISL:MHPA:1,2012-01-06T20:00:00Z,30.6671,-87.9365,-0.9,13.42,2 
DISL,ioos:station:DISL:MHPA:1,2012-01-06T20:30:00Z,30.6671,-87.9365,-0.9,13.25,2 
DISL,ioos:station:DISL:MHPA:1,2012-01-06T21:00:00Z,30.6671,-87.9365,-0.9,13.29,2 
DISL,ioos:station:DISL:MHPA:1,2012-01-06T21:30:00Z,30.6671,-87.9365,-0.9,13.32,2 
DISL,ioos:station:DISL:MHPA:1,2012-01-06T22:00:00Z,30.6671,-87.9365,-0.9,14.01,2 
DISL,ioos:station:DISL:MHPA:1,2012-01-06T22:30:00Z,30.6671,-87.9365,-0.9,14.04,2 
DISL,ioos:station:DISL:MHPA:1,2012-01-06T23:00:00Z,30.6671,-87.9365,-0.9,14.0,2 
DISL,ioos:station:DISL:MHPA:1,2012-01-06T23:30:00Z,30.6671,-87.9365,-0.9,14.07,2 
DISL,ioos:station:DISL:MHPA:1,2012-01-07T00:00:00Z,30.6671,-87.9365,-0.9,14.09,2 
DISL,ioos:station:DISL:MHPA:1,2012-01-07T00:30:00Z,30.6671,-87.9365,-0.9,13.91,2 
DISL,ioos:station:DISL:MHPA:1,2012-01-07T01:00:00Z,30.6671,-87.9365,-0.9,13.52,2 
DISL,ioos:station:DISL:MHPA:1,2012-01-07T01:30:00Z,30.6671,-87.9365,-0.9,14.05,2 
DISL,ioos:station:DISL:MHPA:1,2012-01-07T02:00:00Z,30.6671,-87.9365,-0.9,13.92,2 
DISL,ioos:station:DISL:MHPA:1,2012-01-07T02:30:00Z,30.6671,-87.9365,-0.9,13.3,2 
DISL,ioos:station:DISL:MHPA:1,2012-01-07T03:00:00Z,30.6671,-87.9365,-0.9,13.91,2 
DISL,ioos:station:DISL:MHPA:1,2012-01-07T03:30:00Z,30.6671,-87.9365,-0.9,13.97,2 
DISL,ioos:station:DISL:MHPA:1,2012-01-07T04:00:00Z,30.6671,-87.9365,-0.9,14.08,2 
DISL,ioos:station:DISL:MHPA:1,2012-01-07T04:30:00Z,30.6671,-87.9365,-0.9,13.98,2 
DISL,ioos:station:DISL:MHPA:1,2012-01-07T05:00:00Z,30.6671,-87.9365,-0.9,13.89,2 
DISL,ioos:station:DISL:MHPA:1,2012-01-07T05:30:00Z,30.6671,-87.9365,-0.9,13.51,2 
DISL,ioos:station:DISL:MHPA:1,2012-01-07T06:00:00Z,30.6671,-87.9365,-0.9,13.42,2 
DISL,ioos:station:DISL:MHPA:1,2012-01-07T06:30:00Z,30.6671,-87.9365,-0.9,13.3,2 
DISL,ioos:station:DISL:MHPA:1,2012-01-07T07:00:00Z,30.6671,-87.9365,-0.9,13.38,2 
DISL,ioos:station:DISL:MHPA:1,2012-01-07T07:30:00Z,30.6671,-87.9365,-0.9,13.39,2 
DISL,ioos:station:DISL:MHPA:1,2012-01-07T08:00:00Z,30.6671,-87.9365,-0.9,13.43,2 